Regional Weather Roundup
Issued by NWS Cleveland, OH

Home | Current Version | Previous Version | Text Only | Print | Product List | Glossary On
Versions: 1 2 3 4 5 6 7 8 9 10 11 12 13 14 15 16 17 18 19 20 21 22 23 24 25 26 27 28 29 30 31 32 33 34 35 36 37 38 39 40 41 42 43 44 45 46 47 48 49 50
000
ASUS41 KCLE 011002
RWRCLE
OHIO REGIONAL WEATHER ROUNDUP
NATIONAL WEATHER SERVICE CLEVELAND, OH
600 AM EDT SAT AUG 01 2015

NOTE: "FAIR" INDICATES FEW OR NO CLOUDS BELOW 12,000 FEET WITH NO
SIGNIFICANT WEATHER AND/OR OBSTRUCTIONS TO VISIBILITY.

OHZ001>008-015>018-024>027-034-035-043-044-011100-
   NORTHWEST OHIO

CITY           SKY/WX    TMP DP  RH WIND       PRES   REMARKS
DEFIANCE       CLEAR     60  54  80 SW3       29.95R
FINDLAY        CLEAR     62  54  74 W7        29.94R
TOLEDO EXPRESS CLEAR     61  54  77 W6        29.93R
TOLEDO EXEC    CLEAR     63  53  70 W3        29.93R
LIMA           CLEAR     59  55  87 W6        29.96S
$$

OHZ009>014-019>023-028>033-038-089-011100-
   NORTHEAST OHIO

CITY           SKY/WX    TMP DP  RH WIND       PRES   REMARKS
CLE-HOPKINS    CLEAR     62  55  77 SW5       29.93R
CLE-LAKEFRONT  CLEAR     73  59  61 W9        29.89R
CUY CO. ARPT   NOT AVBL
LORAIN-ELYRIA  CLEAR     60  54  80 W6        29.92R
ASHTABULA      CLEAR     60  58  92 CALM      29.90R
AKRON-CANTON   CLEAR     63  56  78 W7        29.92S
WOOSTER        CLEAR     59  54  83 W5        29.94R
MANSFIELD      CLEAR     63  54  72 W7        29.95R
YOUNGSTOWN     PTCLDY    63  57  81 W5        29.90R
$$

OHZ042-051>053-060>062-070>072-077>081-011100-
  SOUTHWEST OHIO

CITY           SKY/WX    TMP DP  RH WIND       PRES   REMARKS
CINC-COVINGTON PTCLDY    64  61  90 CALM      29.98F
CINC-LUNKEN    CLEAR     62  61  96 CALM      29.98S
HAMILTON       CLEAR     59  58  96 CALM      29.98F
DAYTON         PTCLDY    63  57  81 W6        29.98S
WRIGHT-PAT AFB CLEAR     62  58  88 CALM      29.96F
DAYTON GENERAL CLEAR     62  57  83 CALM      29.97S
WILMINGTON     CLEAR     61  57  87 CALM      29.97S
$$

OHZ036-037-039>041-045>050-054>059-063>069-073>076-082>088-011100-
  CENTRAL AND SOUTHEAST OHIO

CITY           SKY/WX    TMP DP  RH WIND       PRES   REMARKS
COLUMBUS       CLEAR     64  60  87 CALM      29.95R
OSU AIRPORT    CLEAR     63  57  81 W6        29.96R
BOLTON FIELD   NOT AVBL
RICKENBACK AFB CLEAR     62  60  94 SW5       29.95S
NEWARK         CLEAR     61  60  97 CALM      29.94S FOG
MARION         CLEAR     63  54  72 W7        29.95S
LANCASTER      CLEAR     58  56  93 CALM      29.96R
ZANESVILLE     PTCLDY    65  59  81 W3        29.94R
NEW PHILLY     CLEAR     58  57  97 CALM      29.93S FOG
$$


USA.gov is the U.S. government's official web portal to all federal, state and local government web resources and services.